[[{"header":{"parameterUnit":"m.s-1","parameterCategory":1,"la1":30.2991,"la2":30.254,"lo1":-89.0895,"lo2":-89.0444,"dy":0.0017,"dx":0.0017,"nx":28,"ny":28,"refTime":"2023-08-29T09:00:00:Z","depth":0,"parameterNumber":2,"parameterNumberName":"U-component_of_WINDS"},"data":[0,0,0,0,0,0,0,0,0,0,0,0,0,0,0,0,0,0,0,0,0,0,0,0,0,0,0,0,0,0,0,0,0,0,0,0,0,0,0,0,0,0,0,0,0,0,0,0,0,0,0,0,0,0,0,0,0,0,0.8301,0.8302,0,0.839,0.8391,0.8392,0.8426,0.8426,0.8425,0.8425,0.8519,0.8522,0.8525,0,0,0,0,0,0,0,0,0,0,0,0,0,0.8166,0.8168,0.8301,0.8302,0.8304,0.839,0.8391,0.8392,0.8426,0.8426,0.8425,0.8425,0.8519,0.8522,0.8525,0,0,0,0,0,0,0,0,0,0,0,0,0,0.8237,0.8169,0.8301,0.8331,0.8334,0.839,0.8391,0.8393,0.8426,0.8426,0.8425,0.8425,0.8517,0.8521,0.8526,0.8559,0,0,0.8538,0.854,0,0,0,0,0,0,0,0,0.8233,0.8242,0.8325,0.8329,0.8333,0.8396,0.8378,0.8449,0.8426,0.8391,0.8425,0.8425,0.8479,0.8486,0.8504,0.8564,0.8568,0.8539,0.8541,0.8543,0.8544,0,0,0,0,0,0,0,0.8228,0.8238,0.8337,0.8326,0.8331,0.8341,0.8351,0.8392,0.8437,0.8394,0.8397,0.8407,0.8481,0.85,0.8506,0.8569,0.8538,0.8542,0.8545,0.8546,0.8664,0.8664,0,0,0,0,0,0,0.8217,0.8234,0.8334,0.8339,0.8281,0.8344,0.8355,0.8376,0.8436,0.8445,0.8407,0.8408,0.8493,0.8502,0.851,0.8555,0.8543,0.8547,0.8549,0.8663,0.8664,0.8665,0,0,0,0,0,0,0.8214,0.8226,0.833,0.8287,0.8301,0.8347,0.8371,0.8378,0.8397,0.8446,0.8454,0.8418,0.8493,0.8504,0.8547,0.8558,0.8549,0.8552,0.8662,0.8663,0.8664,0.8644,0,0,0,0,0,0,0.821,0.8225,0.8237,0.8287,0.8303,0.8364,0.8372,0.838,0.8404,0.8406,0.8458,0.8466,0.8494,0.8541,0.8551,0.8564,0.8556,0.8662,0.8663,0.8664,0.8644,0.8644,0.8644,0,0,0,0,0,0.8205,0.8228,0.8237,0.8249,0.8319,0.8365,0.8374,0.8404,0.8404,0.8418,0.845,0.8465,0.8555,0.8545,0.8557,0.8571,0.8661,0.8663,0.8664,0.8643,0.8644,0.8644,0,0,0,0,0,0,0.8178,0.8235,0.8246,0.8285,0.832,0.837,0.8388,0.8403,0.8439,0.844,0.8477,0.8489,0.8529,0.8555,0.8542,0.8608,0.861,0.8613,0.859,0.8591,0.8591,0.8584,0.8559,0,0,0,0,0,0.8176,0.8207,0.8256,0.8286,0.8302,0.8342,0.8363,0.8383,0.8421,0.8436,0.8471,0.8509,0.8546,0.857,0.8607,0.8648,0.8661,0.8664,0.8664,0.8664,0.8667,0.8693,0.8695,0.8669,0.8669,0.8669,0,0,0.8173,0.8208,0.8226,0.8281,0.831,0.8343,0.8354,0.8388,0.8413,0.8442,0.8485,0.8512,0.8556,0.8599,0.8619,0.8621,0.8677,0.8666,0.8665,0.8668,0.8694,0.8697,0.8699,0.867,0.867,0.867,0,0,0.8185,0.8214,0.8242,0.8272,0.8316,0.8342,0.8349,0.8398,0.8417,0.846,0.8483,0.8515,0.8577,0.8609,0.8633,0.8659,0.8675,0.867,0.8671,0.8696,0.8698,0.87,0.871,0.8713,0.8673,0.8673,0.8673,0,0.8176,0.8225,0.8255,0.8288,0.8313,0.834,0.8371,0.8398,0.8452,0.847,0.8471,0.8552,0.8583,0.8635,0.8641,0.8659,0.867,0.8664,0.8695,0.8697,0.8699,0.871,0.8714,0.8672,0.8672,0.8672,0.8672,0,0.8212,0.8246,0.8264,0.8315,0.8342,0.8374,0.8411,0.8435,0.8453,0.848,0.8525,0.8565,0.8611,0.8625,0.8643,0.8679,0.8679,0.8687,0.8689,0.87,0.8711,0.8715,0.8671,0.8671,0.8671,0.8671,0,0,0.8208,0.8277,0.8283,0.8307,0.8359,0.8386,0.842,0.8465,0.8485,0.8522,0.8553,0.8606,0.8614,0.8642,0.8664,0.8686,0.8706,0.8692,0.8693,0.8694,0.875,0.8744,0.8748,0.8717,0.8718,0.8718,0.8747,0,0.8227,0.8287,0.8317,0.8365,0.8397,0.8425,0.8455,0.8491,0.8517,0.8551,0.8581,0.8619,0.8626,0.8643,0.8665,0.8698,0.8718,0.8697,0.8747,0.8749,0.8736,0.8754,0.8747,0.8772,0.8751,0.8752,0.8752,0,0.8257,0.8293,0.8344,0.8393,0.8408,0.8434,0.8479,0.8509,0.8552,0.857,0.8601,0.8624,0.8663,0.8662,0.8718,0.8703,0.8725,0.8745,0.8747,0.8753,0.8751,0.8761,0.8781,0.8785,0.8759,0.8759,0.8758,0,0.825,0.8312,0.8351,0.837,0.8429,0.8447,0.8472,0.8514,0.8539,0.8579,0.8596,0.8639,0.8664,0.8698,0.8732,0.8728,0.8785,0.8787,0.8803,0.8802,0.8814,0.8812,0.8838,0.8827,0.8827,0.8827,0.8827,0,0.8268,0.8298,0.8348,0.8372,0.8408,0.8443,0.8478,0.8506,0.8543,0.8575,0.8601,0.8631,0.8674,0.8709,0.8737,0.878,0.879,0.8807,0.8815,0.8805,0.8803,0.8821,0.8821,0.8828,0.8828,0.8828,0.8827,0,0.8266,0.83,0.8345,0.8396,0.841,0.8435,0.848,0.8506,0.8534,0.8574,0.8585,0.8631,0.8674,0.8712,0.8769,0.8788,0.8832,0.884,0.8817,0.8821,0.8836,0.8834,0.8874,0.8882,0.8864,0.8865,0.8865,0,0.8275,0.8299,0.8354,0.8376,0.8401,0.8437,0.8463,0.8499,0.8526,0.8577,0.8597,0.8642,0.868,0.8748,0.8788,0.8832,0.8842,0.8853,0.8849,0.884,0.8844,0.8842,0.8846,0.8853,0.8853,0.8853,0.8853,0,0.8289,0.8305,0.8341,0.8383,0.8413,0.8449,0.8485,0.8503,0.8546,0.8575,0.8619,0.8648,0.8707,0.8753,0.8802,0.8831,0.885,0.8854,0.8861,0.8852,0.8838,0.8847,0.8819,0.8853,0.8853,0.8853,0.8853,0.8853,0.8294,0.8317,0.8359,0.8399,0.843,0.8464,0.8491,0.8523,0.856,0.861,0.863,0.8675,0.872,0.8788,0.8817,0.8854,0.8857,0.8866,0.8869,0.887,0.887,0.8831,0.8863,0.8863,0.8863,0.8864,0.8864,0,0.8309,0.8338,0.8374,0.8424,0.8456,0.8471,0.8512,0.8539,0.8578,0.8617,0.8654,0.8706,0.8751,0.8794,0.8841,0.8863,0.8874,0.8875,0.8874,0.8881,0.8863,0.8854,0.8866,0.8866,0.8866,0.8866,0.8866,0.8866,0.8321,0.8362,0.8384,0.8441,0.847,0.8514,0.8537,0.8569,0.8601,0.8657,0.8694,0.8722,0.8764,0.8815,0.8857,0.8869,0.8886,0.8885,0.8899,0.8882,0.8882,0.8881,0.8872,0.8888,0.8888,0.8914,0.8914,0.8914]},{"header":{"parameterUnit":"m.s-1","parameterCategory":1,"la1":30.2991,"la2":30.254,"lo1":-89.0895,"lo2":-89.0444,"dy":0.0017,"dx":0.0017,"nx":28,"ny":28,"refTime":"2023-08-29T09:00:00:Z","depth":0,"parameterNumber":3,"parameterNumberName":"V-component_of_WINDS"},"data":[0,0,0,0,0,0,0,0,0,0,0,0,0,0,0,0,0,0,0,0,0,0,0,0,0,0,0,0,0,0,0,0,0,0,0,0,0,0,0,0,0,0,0,0,0,0,0,0,0,0,0,0,0,0,0,0,0,0,-5.7795,-5.7796,0,-5.7873,-5.7873,-5.7874,-5.7898,-5.7898,-5.7898,-5.7897,-5.7971,-5.7973,-5.7976,0,0,0,0,0,0,0,0,0,0,0,0,0,-5.7664,-5.7666,-5.7795,-5.7796,-5.7797,-5.7872,-5.7874,-5.7875,-5.7898,-5.7898,-5.7897,-5.7897,-5.797,-5.7973,-5.7976,0,0,0,0,0,0,0,0,0,0,0,0,0,-5.7729,-5.7667,-5.7794,-5.7818,-5.7821,-5.7872,-5.7874,-5.7875,-5.7898,-5.7898,-5.7897,-5.7897,-5.7969,-5.7973,-5.7976,-5.8008,0,0,-5.7987,-5.7988,0,0,0,0,0,0,0,0,-5.7725,-5.7734,-5.7813,-5.7816,-5.782,-5.7875,-5.7855,-5.7919,-5.7899,-5.7869,-5.7897,-5.7897,-5.7939,-5.7945,-5.7961,-5.8012,-5.8015,-5.7987,-5.7989,-5.7991,-5.7992,0,0,0,0,0,0,0,-5.7721,-5.7731,-5.7825,-5.7814,-5.7818,-5.7824,-5.7832,-5.7867,-5.7906,-5.7871,-5.7873,-5.7882,-5.7941,-5.7957,-5.7963,-5.8016,-5.7987,-5.799,-5.7992,-5.7994,-5.8101,-5.8102,0,0,0,0,0,0,-5.7713,-5.7727,-5.7823,-5.7828,-5.777,-5.7826,-5.7836,-5.7858,-5.7906,-5.7913,-5.7883,-5.7883,-5.7952,-5.7959,-5.7965,-5.8008,-5.7991,-5.7994,-5.7996,-5.8101,-5.8102,-5.8102,0,0,0,0,0,0,-5.771,-5.7721,-5.782,-5.7778,-5.7791,-5.7829,-5.7854,-5.786,-5.7876,-5.7915,-5.7921,-5.7893,-5.7952,-5.7961,-5.7999,-5.8011,-5.7995,-5.7999,-5.81,-5.8101,-5.8102,-5.8093,0,0,0,0,0,0,-5.7706,-5.772,-5.7733,-5.7778,-5.7793,-5.7852,-5.7854,-5.7862,-5.7883,-5.7884,-5.7926,-5.7932,-5.7952,-5.7994,-5.8002,-5.8016,-5.8001,-5.8099,-5.81,-5.8102,-5.8092,-5.8094,-5.8095,0,0,0,0,0,-5.7701,-5.7725,-5.7733,-5.7745,-5.781,-5.7853,-5.7861,-5.7886,-5.7884,-5.7897,-5.7922,-5.793,-5.8009,-5.7997,-5.8007,-5.8022,-5.8098,-5.81,-5.8102,-5.8092,-5.8093,-5.8095,0,0,0,0,0,0,-5.7677,-5.7731,-5.7741,-5.778,-5.7812,-5.7857,-5.7874,-5.7886,-5.7917,-5.7917,-5.7945,-5.7954,-5.799,-5.801,-5.7996,-5.8057,-5.8054,-5.8058,-5.8043,-5.8045,-5.8046,-5.804,-5.8004,0,0,0,0,0,-5.7677,-5.7708,-5.7754,-5.7784,-5.78,-5.7834,-5.7854,-5.7871,-5.7904,-5.7917,-5.7944,-5.7975,-5.8007,-5.8027,-5.8058,-5.8096,-5.8106,-5.8111,-5.8113,-5.8114,-5.8116,-5.814,-5.8143,-5.8108,-5.8108,-5.8108,0,0,-5.7675,-5.7709,-5.7726,-5.778,-5.7807,-5.7839,-5.7845,-5.7877,-5.7901,-5.7921,-5.796,-5.7982,-5.8018,-5.8057,-5.8075,-5.8074,-5.8129,-5.8116,-5.8116,-5.8118,-5.8142,-5.8145,-5.8148,-5.8109,-5.8109,-5.8109,0,0,-5.7689,-5.7717,-5.7747,-5.7775,-5.7817,-5.7841,-5.7848,-5.7893,-5.7909,-5.7949,-5.7965,-5.7994,-5.8047,-5.8074,-5.8094,-5.8124,-5.8133,-5.8133,-5.8139,-5.8162,-5.8165,-5.8167,-5.8179,-5.8182,-5.8136,-5.8136,-5.8136,0,-5.768,-5.773,-5.776,-5.7794,-5.7817,-5.7841,-5.7871,-5.7896,-5.7945,-5.796,-5.796,-5.8031,-5.8056,-5.8103,-5.8111,-5.8126,-5.8136,-5.8127,-5.8162,-5.8165,-5.8168,-5.8179,-5.8183,-5.8135,-5.8136,-5.8136,-5.8136,0,-5.772,-5.7754,-5.7773,-5.7824,-5.785,-5.7881,-5.7916,-5.7938,-5.7954,-5.7978,-5.802,-5.8053,-5.8093,-5.8105,-5.8119,-5.8155,-5.8153,-5.8157,-5.8154,-5.8171,-5.8182,-5.8186,-5.8135,-5.8135,-5.8135,-5.8135,0,0,-5.7715,-5.7787,-5.7793,-5.7818,-5.7868,-5.7895,-5.7929,-5.7971,-5.799,-5.8024,-5.8053,-5.8101,-5.8106,-5.813,-5.8147,-5.8168,-5.8191,-5.8169,-5.8171,-5.8172,-5.8234,-5.823,-5.8235,-5.8199,-5.8199,-5.82,-5.8231,0,-5.7736,-5.7799,-5.7829,-5.7878,-5.7911,-5.7937,-5.7966,-5.8,-5.8025,-5.8056,-5.8082,-5.8116,-5.812,-5.8135,-5.8156,-5.8183,-5.8203,-5.8182,-5.8225,-5.8226,-5.8214,-5.824,-5.8236,-5.8263,-5.8235,-5.8236,-5.8237,0,-5.7766,-5.7805,-5.7858,-5.7909,-5.7924,-5.795,-5.7993,-5.8023,-5.8063,-5.8079,-5.8108,-5.8126,-5.8163,-5.8159,-5.821,-5.8195,-5.8215,-5.8232,-5.8233,-5.8237,-5.8231,-5.8244,-5.8272,-5.8276,-5.8244,-5.8243,-5.8243,0,-5.7759,-5.7824,-5.7865,-5.7886,-5.7945,-5.7964,-5.7989,-5.8029,-5.8053,-5.8091,-5.8107,-5.8147,-5.8168,-5.8199,-5.8228,-5.8222,-5.8277,-5.8275,-5.8291,-5.829,-5.8299,-5.8298,-5.833,-5.8314,-5.8314,-5.8313,-5.8313,0,-5.7778,-5.781,-5.7864,-5.7889,-5.7926,-5.7961,-5.7997,-5.8024,-5.806,-5.8091,-5.8114,-5.8142,-5.818,-5.8212,-5.8235,-5.8275,-5.8284,-5.8298,-5.8304,-5.8296,-5.8294,-5.8308,-5.8306,-5.8315,-5.8314,-5.8314,-5.8314,0,-5.7774,-5.7812,-5.7859,-5.7914,-5.7929,-5.7954,-5.8,-5.8025,-5.8053,-5.8092,-5.8103,-5.8146,-5.8186,-5.8219,-5.8271,-5.8286,-5.8328,-5.8334,-5.8315,-5.8318,-5.8333,-5.8331,-5.8374,-5.8382,-5.836,-5.836,-5.836,0,-5.7783,-5.7809,-5.7869,-5.7893,-5.7919,-5.7956,-5.7983,-5.802,-5.8046,-5.8097,-5.8116,-5.816,-5.8196,-5.8259,-5.8294,-5.8334,-5.8342,-5.8354,-5.8347,-5.834,-5.8342,-5.834,-5.8343,-5.8354,-5.8354,-5.8354,-5.8354,0,-5.7796,-5.7814,-5.7853,-5.79,-5.7932,-5.7969,-5.8007,-5.8025,-5.8068,-5.8097,-5.8141,-5.8169,-5.8225,-5.8267,-5.8313,-5.8338,-5.8353,-5.8357,-5.8363,-5.8354,-5.8342,-5.8349,-5.8317,-5.8355,-5.8355,-5.8355,-5.8355,-5.8355,-5.7799,-5.7824,-5.7871,-5.7915,-5.7948,-5.7984,-5.8012,-5.8046,-5.8083,-5.8133,-5.8153,-5.8198,-5.824,-5.8303,-5.8329,-5.8364,-5.8366,-5.8374,-5.8376,-5.8377,-5.8377,-5.8338,-5.8373,-5.8373,-5.8373,-5.8373,-5.8373,0,-5.7812,-5.7846,-5.7885,-5.794,-5.7975,-5.7991,-5.8034,-5.8062,-5.8102,-5.8141,-5.8178,-5.823,-5.8272,-5.8313,-5.8357,-5.8378,-5.8386,-5.8388,-5.8386,-5.8392,-5.8373,-5.8363,-5.8381,-5.8381,-5.8381,-5.8381,-5.8381,-5.8381,-5.7824,-5.7869,-5.7894,-5.7956,-5.7988,-5.8035,-5.8059,-5.8093,-5.8125,-5.8182,-5.8219,-5.8247,-5.8287,-5.8336,-5.8375,-5.8386,-5.8401,-5.8401,-5.8414,-5.8394,-5.8393,-5.8392,-5.8383,-5.8405,-5.8405,-5.843,-5.8431,-5.8431]}]]